This demonstration page uses our WeatherBlox Daily Observations layout. Learn more.

Left ArrowRight Arrow

34.02893, -84.19858

Hourly Observations for April 11, 2019

Temp ( °F °C ) Dew Point ( °F °C ) Humidity (%) Winds ( mph kmh ) Pressure ( in mb ) Visibility ( mi km ) Precip ( " mm )
12:53 am 00:53 Clear 59 15 54 12.2 83 83 Calm 29.84 1010 10 16 0.00 0.00
1:53 am 01:53 Clear 60 15.6 53 11.7 78 78 Calm 29.84 1010 10 16 0.00 0.00
2:53 am 02:53 Clear 58 14.4 53 11.7 84 84 Calm 29.84 1010 10 16 0.00 0.00
3:53 am 03:53 Clear 62 16.7 53 11.7 73 73 VRB 3 6 29.83 1010 10 16 0.00 0.00
4:53 am 04:53 Clear 62 16.7 54 12.2 75 75 SSE 6 9 29.83 1010 10 16 0.00 0.00
5:53 am 05:53 Clear 61 16.1 57 13.9 87 87 SSE 6 9 29.85 1011 10 16 0.00 0.00
6:53 am 06:53 Clear 60 15.6 57 13.9 90 90 Calm 29.88 1012 10 16 0.00 0.00
7:53 am 07:53 Sunny 61 16.1 59 15 93 93 VRB 3 6 29.92 1013 10 16 0.00 0.00
8:53 am 08:53 Sunny 64 17.8 60 15.6 87 87 S 6 9 29.93 1014 10 16 0.00 0.00
9:53 am 09:53 Sunny 68 20 61 16.1 78 78 S 7 11 29.93 1014 10 16 0.00 0.00
10:53 am 10:53 Sunny 71 21.7 61 16.1 71 71 VRB 7 11 29.94 1014 10 16 0.00 0.00
11:53 am 11:53 Sunny 74 23.3 58 14.4 57 57 S 9 15 29.95 1014 10 16 0.00 0.00
12:53 pm 12:53 Sunny 76 24.4 56 13.3 50 50 SE 10 17 29.93 1014 10 16 0.00 0.00
1:53 pm 13:53 Sunny 77 25 55 12.8 47 47 SSE 10 17 29.92 1013 10 16 0.00 0.00
2:53 pm 14:53 Sunny 79 26.1 47 8.3 32 32 SE 8 13 29.90 1012 10 16 0.00 0.00
3:53 pm 15:53 Sunny 80 26.7 49 9.4 34 34 ESE 13 20 29.86 1011 10 16 0.00 0.00
4:53 pm 16:53 Sunny 79 26.1 49 9.4 35 35 ESE 10 17 29.86 1011 10 16 0.00 0.00
5:53 pm 17:53 Sunny 78 25.6 52 11.1 40 40 SE 9 15 29.87 1011 10 16 0.00 0.00
6:53 pm 18:53 Mostly Cloudy 78 25.6 54 12.2 43 43 SE 9 15 29.87 1012 10 16 0.00 0.00
7:53 pm 19:53 Partly Cloudy 75 23.9 55 12.8 50 50 SE 9 15 29.89 1012 10 16 0.00 0.00
8:53 pm 20:53 Cloudy 74 23.3 57 13.9 56 56 ESE 3 6 29.90 1013 10 16 0.00 0.00
9:53 pm 21:53 Mostly Cloudy 73 22.8 58 14.4 59 59 E 3 6 29.90 1013 10 16 0.00 0.00
10:53 pm 22:53 Mostly Cloudy 72 22.2 59 15 64 64 SE 9 15 29.90 1013 10 16 0.00 0.00
11:53 pm 23:53 Cloudy 71 21.7 61 16.1 71 71 SE 14 22 29.91 1013 10 16 0.00 0.03

Powered by AerisWeather